Location: Unspecified
(0.0000°N, 0.0000°E)
Time: 19:21:57
(UTC+00:00)

Vanguard 3 - Pass Details

Date: 01 October 2023
Orbit: 507 x 3241 km, 33.3° (Epoch: 29 November)

Event Time Altitude Azimuth Distance (km) Brightness Sun altitude
Rises 11:22:04 0° 220° (SW) 6,087 11.6 82.4°
Reaches altitude 10° 11:26:06 10° 213° (SSW) 5,389 11.5 83.3°
Maximum altitude 11:42:23 43° 146° (SE) 4,015 11.5 86.3°
Drops below altitude 10° 12:00:10 10° 81° (E) 5,915 11.6 85.9°
Sets 12:04:45 0° 75° (ENE) 6,709 11.8 85.1°
